Regional Weather Roundup
Issued by NWS

Home | Current Version | Previous Version | Text Only | Print | Product List | Glossary On
Versions: 1 2 3 4 5 6 7 8 9 10 11 12 13 14 15 16 17 18 19 20 21 22 23 24 25 26 27 28 29 30 31 32 33 34 35 36 37 38 39 40 41 42 43 44 45 46 47 48 49 50
000
ASUS43 KDMX 260806
RWRIA

WEATHER ROUNDUP FOR IOWA
NATIONAL WEATHER SERVICE DES MOINES IA
200 AM CST SUN FEB 26 2017

NOTE: "FAIR" INDICATES FEW OR NO CLOUDS BELOW 12,000 FEET WITH NO
SIGNIFICANT WEATHER AND/OR OBSTRUCTIONS TO VISIBILITY.

* - THESE STATIONS ARE NOT NWS STATIONS...THUS NOT UNDER NWS
QUALITY CONTROL.  THEY ALSO DO NOT REPORT WEATHER SUCH
AS PRECIPITATION OR FOG.

IAZ001>003-012>014-020>022-031>034-043>046-260900-
   NORTHWEST IOWA

CITY           SKY/WX    TMP DP  RH WIND       PRES   REMARKS
CARROLL *      CLOUDY    28  23  80 SW15      29.82F WCI  17
CHEROKEE *     PTCLDY    20  16  86 S3        29.82S
DENISON *      CLOUDY    25  19  80 S3        29.81F
LE MARS *      MOCLDY    19  16  86 S6        29.82F WCI  11
SHELDON *      PTCLDY    21  21 100 SW8       29.77S WCI  12
SIOUX CITY     CLOUDY    21  16  81 SE5       29.82F WCI  15
SPENCER        PTCLDY    18  14  84 SW10      29.78F WCI   6
STORM LAKE *   PTCLDY    23  18  80 SW13      29.80S WCI  11
$$

IAZ055>058-069>071-079>083-090>094-260900-
   SOUTHWEST IOWA

CITY           SKY/WX    TMP DP  RH WIND       PRES   REMARKS
ATLANTIC *     CLOUDY    32  23  69 SW14      29.86S WCI  22
AUDUBON *      PTCLDY    30  21  69 S12       29.85S WCI  21
CLARINDA *     CLOUDY    32  21  64 SW10      29.93F WCI  24
COUNCIL BLFS * CLOUDY    30  21  69 SW15      29.86F WCI  19
CRESTON *      CLOUDY    30  18  59 S14       29.90S WCI  20
HARLAN  *      CLOUDY    30  23  74 SW14      29.87F WCI  20
LAMONI         CLOUDY    30  17  58 S12       29.92F WCI  20
RED OAK *      CLOUDY    32  23  69 SW10      29.90S WCI  24
SHENANDOAH *   CLEAR     34  23  64 SW12      29.92R WCI  25
$$

IAZ047>049-059>061-072>074-084-260900-
   CENTRAL IOWA

CITY           SKY/WX    TMP DP  RH WIND       PRES   REMARKS
AMES           MOCLDY    29  20  69 S14       29.86F WCI  18
ANKENY *       CLOUDY    30  18  59 S12       29.90F WCI  21
BOONE *        PTCLDY    28  18  64 S12G20    29.84F WCI  18
CHARITON *     CLOUDY    30  18  59 S14G21    29.91F WCI  20
DES MOINES     CLOUDY    32  17  54 SW12      29.89F WCI  23
GRINNELL*      MOCLDY    29  20  70 S13       29.91F WCI  18
KNOXVILLE *    CLOUDY    30  16  55 S10G18    29.90F WCI  21
MARSHALLTOWN   CLOUDY    29  20  69 S15       29.87F WCI  18
NEWTON *       MOCLDY    27  19  74 S9        29.90F WCI  17
PELLA *        CLEAR     31  17  58 S12       29.93F WCI  21
PERRY *          N/A     26  20  79 S12       29.85F WCI  16
$$

IAZ004>006-015-016-023>025-035-036-260900-
   NORTH CENTRAL IOWA

CITY           SKY/WX    TMP DP  RH WIND       PRES   REMARKS
ALGONA *       PTCLDY    18  16  93 S13       29.80F WCI   4
CLARION *      MOCLDY    25  21  86 S10       29.83F WCI  15
ESTHERVILLE    CLOUDY    17  14  88 S10       29.78F WCI   5
FORT DODGE *   CLOUDY    25  16  68 S12       29.83F WCI  14
MASON CITY     CLEAR     21  16  81 S9        29.83F WCI  11
FOREST CITY *    N/A     23  18  80 S13       29.81F WCI  11
WEBSTER CITY * MOCLDY    28  18  64 S17       29.81F WCI  16
IOWA FALLS *   MOCLDY    29  21  74 S14       29.85F WCI  18
$$

IAZ007>011-017>019-026>030-037>042-050>054-066-260900-
   NORTHEAST IOWA

CITY           SKY/WX    TMP DP  RH WIND       PRES   REMARKS
CEDAR RAPIDS   CLOUDY    27  19  72 S10       29.94F WCI  17
CHARLES CITY * CLOUDY    27  21  80 S14       29.85F WCI  15
CLINTON *      MOCLDY    24  21  88 S8        30.00F WCI  15
DECORAH *      CLOUDY    27  19  74 S10G18    29.85F WCI  17
DUBUQUE        CLOUDY    24  18  77 S12       29.94F WCI  13
MONTICELLO *   CLOUDY    27  19  74 S13G18    29.95F WCI  16
OELWEIN *      CLOUDY    27  21  80 S17       29.89F WCI  14
WATERLOO       CLOUDY    28  19  69 S14       29.88F WCI  17
$$

IAZ064-065-067-068-078-260900-
   EAST CENTRAL IOWA

CITY           SKY/WX    TMP DP  RH WIND       PRES   REMARKS
DAVENPORT      CLOUDY    26  18  71 S8        30.01F WCI  18
IOWA CITY      CLOUDY    28  19  69 SE8       29.99F WCI  20
MUSCATINE *    CLOUDY    28  19  69 SE6       30.01F WCI  22
QUAD CITIES    MOCLDY    26  17  68 CALM      30.02F
$$

IAZ062-063-075>077-085>089-095>099-260900-
   SOUTHEAST IOWA

CITY           SKY/WX    TMP DP  RH WIND       PRES   REMARKS
BURLINGTON     CLOUDY    28  17  63 S9        30.01F WCI  19
FAIRFIELD *    CLOUDY    28  14  54 S10       29.97F WCI  19
KEOKUK *       MOCLDY    30  14  51 S9        30.01F WCI  22
CENTERVILLE *    N/A     30  16  55 S13       29.96F WCI  20
OTTUMWA        CLOUDY    30  17  58 S13       29.94F WCI  20
WASHINGTON *   CLOUDY    28  19  69 S9        29.98F WCI  20
$$

ABBREVIATIONS USED IN REMARKS
   TC - TEMPERATURES IN CELSIUS
  WCI - WIND CHILL INDEX
   HX - HEAT INDEX
  VSB - VISIBILITY
$$





USA.gov is the U.S. government's official web portal to all federal, state and local government web resources and services.